Location: Unspecified
(0.0000°N, 0.0000°E)
Time: 00:38:50
(UTC+00:00)

DMSP 5D-2 F13 DEB - Visible Passes

Search period start: 18 May 2026 00:00
Search period end: 28 May 2026 00:00
Orbit: 741 x 755 km, 98.7° (Epoch: 16 May)

Date Brightness Start Highest point End Pass type
(mag) Time Alt. Az. Time Alt. Az. Time Alt. Az.
19 May ? 20:33:58 12° N 20:33:58 12° N 20:34:24 10° N visible
21 May ? 20:49:18 12° NNW 20:49:18 12° NNW 20:49:34 10° NNW visible
22 May ? 20:07:02 12° NNE 20:07:02 12° NNE 20:07:29 10° NNE visible
24 May ? 20:22:20 14° N 20:22:20 14° N 20:22:59 10° N visible
26 May ? 20:37:35 14° N 20:37:35 14° N 20:38:14 10° N visible
27 May ? 19:55:17 11° NNE 19:55:17 11° NNE 19:55:34 10° NNE visible
